Regional Weather Roundup
Issued by NWS Sterling, VA

Home | Current Version | Previous Version | Graphics & Text | Print | Product List | Glossary On
Versions: 1 2 3 4 5 6 7 8 9 10 11 12 13 14 15 16 17 18 19 20 21 22 23 24 25 26 27
000
ASUS41 KLWX 240510
RWRLWX

REGIONAL WEATHER ROUNDUP
NATIONAL WEATHER SERVICE BALTIMORE MD/WASHINGTON DC
100 AM EDT TUE MAY 24 2016

Note: "FAIR" indicates few or no clouds below 12,000 feet
with no significant weather and/or obstructions to visibility.
 TC=TEMPERATURE CELSIUS

 * =Non NWS site. Station does not report precipitation (e.g. rain,
    snow, etc.), thunder, or fog.

DCZ001-MDZ009-015-VAZ040>042-051-053>054-240600-
WASHINGTON METRO

CITY           SKY/WX    TMP DP  RH WIND       PRES   REMARKS
WASHINGTON NAT LGT RAIN  61  57  87 W7        29.95F
DULLES         MOCLDY    54  54 100 SE5       29.95F
ANDREWS AFB    PTCLDY    60  57  90 W8        29.93F
FT BELVOIR     MOCLDY    58  56  95 VRB1      29.99R
QUANTICO       MOCLDY    58  56  93 NW8       29.96F
LEESBURG*      FAIR      59  59 100 CALM      29.96F
MANASSAS*      FAIR      55  55 100 CALM      29.96S

$$

MDZ006>007-011-014-240600-
BALTIMORE METRO

CITY           SKY/WX    TMP DP  RH WIND       PRES   REMARKS
BWI AIRPORT    LGT RAIN  59  56  89 VRB6      29.94R
MD SCIENCE CTR   N/A     61  55  81 MISG      29.94R
MARTIN STATE   CLOUDY    61  59  94 CALM      29.94F
ANNAPOLIS      CLOUDY    60  56  86 W5        29.93F

$$

MDZ012-015-019>023-240600-
MARYLAND EASTERN SHORE

CITY           SKY/WX    TMP DP  RH WIND       PRES   REMARKS
OCEAN CITY     CLOUDY    55  53  93 CALM      29.93F
SALISBURY      CLOUDY    57  54  89 CALM      29.94R
EASTON*        CLOUDY    58  58 100 CALM      29.98S

$$

MDZ017>025-240600-
SOUTHERN MARYLAND

CITY           SKY/WX    TMP DP  RH WIND       PRES   REMARKS
PATUXENT RIVER MOCLDY    59  55  87 W5        29.95S
ST INIGOES     MOCLDY    59  57  93 CALM      29.95S
LEONARDTOWN*   NOT AVBL

$$

MDZ003>005-240600-
NORTH CENTRAL MARYLAND

CITY           SKY/WX    TMP DP  RH WIND       PRES   REMARKS
FREDERICK*     LGT RAIN  59  55  88 SE5       30.00R
HAGERSTOWN APT PTCLDY    56  53  90 S3        29.97S
WESTMINSTER*   PTCLDY    57  54  88 SW7       29.95F

$$

MDZ501>502-240600-
WESTERN MARYLAND

CITY           SKY/WX    TMP DP  RH WIND       PRES   REMARKS
OAKLAND*       NOT AVBL
CUMBERLAND*    CLEAR     61  52  72 CALM      30.04F

$$

VAZ025>031-240600-
SHENANDOAH VALLEY

CITY           SKY/WX    TMP DP  RH WIND       PRES   REMARKS
WINCHESTER*    MOCLDY    55  54  94 CALM      29.98S
FRONT ROYAL*   MOCLDY    55  54  94 SW6       29.97S
LURAY*         MOCLDY    59  55  88 SE5       30.00S
NEW MARKET*    CLOUDY    57  55  92 CALM      30.02F
STAUNTON*      LGT RAIN  57  57 100 W5        30.05F
WAYNESBORO*    CLOUDY    55  53  94 W7        30.05R

$$

WVZ021-048>050-054>055-240600-
EASTERN WEST VIRGINIA PANHANDLE

CITY           SKY/WX    TMP DP  RH WIND       PRES   REMARKS
MARTINSBURG    MOCLDY    55  54  96 SW3       29.96F
PETERSBURG*    MOCLDY    54  53  99 CALM      30.06R FOG

$$

VAZ036>039-050-240600-
CENTRAL FOOTHILLS

CITY           SKY/WX    TMP DP  RH WIND       PRES   REMARKS
CHARLOTTESVILL CLOUDY    58  55  90 SW5       29.99F
CULPEPER*      FAIR      54  54 100 CALM      29.97F FOG
ORANGE*        FAIR      55  55 100 CALM      29.99F
GORDONSVILLE*  FAIR      55  55  99 SW6       29.97F
WARRENTON*     FAIR      56  51  85 CALM      29.95F

$$

VAZ055>057-240600-
NORTH AND CENTRAL PIEDMONT

CITY           SKY/WX    TMP DP  RH WIND       PRES   REMARKS
FREDERICKSBRG* FAIR      57  57 100 CALM      29.96S
STAFFORD*      FAIR      55  53  93 CALM      30.00S

$$

NCZ024-NYZ072-PAZ021-071-VAZ022-071-240600-
OTHER REGIONAL OBSERVATIONS

CITY           SKY/WX    TMP DP  RH WIND       PRES   REMARKS
NEW YORK CITY  CLOUDY    62  48  60 VRB3      29.93F
PHILADELPHIA   CLOUDY    60  51  72 S6        29.94S
PITTSBURGH     PTCLDY    57  51  80 CALM      30.02F
ROANOKE        FAIR      57  54  89 CALM      30.07R
RICHMOND       CLOUDY    57  54  89 CALM      29.97S
RALEIGH        PTCLDY    51  50  96 CALM      30.04F

$$

ANZ530>537-240600-
MARINE OBSERVATIONS

STATION/POSITION TIME  TEMP    WIND        PRES
                       AIR SEA DIR/SP/G
                 (UTC) (F)     (DEG/KT/KT) (MB)
THOMAS PT LIGHT  0500   61 61  260/  4/  4 1014.9F
BALT KEY BRIDGE  0400   62     260/ 13/ 14 1013.2F
COVE POINT       0400   60     350/ 10/ 11 1014.9R
LEWISETTA        0400   60 63  220/  5/  6 1013.7
SOLOMONS ISLAND  0400   60 62  320/  4/  6   N/A
PINEY POINT      0400          340/ 10/ 11   N/A

$$





USA.gov is the U.S. government's official web portal to all federal, state and local government web resources and services.